Tracking 29091 objects as of 17-Jul-2024
HD Live streaming from Space Station
objects crossing your sky now

ATLAS 5 CENTAUR DEB

Track ATLAS 5 CENTAUR DEB now!


NORAD ID: 46665
Int'l Code: 2018-079CT
Perigee: 9,410.5 km
Apogee: 36,820.4 km
Inclination: 11.7 °
Period: 839.8 minutes
Semi major axis: 29486 km
RCS: Unknown
Launch date: October 17, 2018
Source: United States (US)
Launch site: AIR FORCE EASTERN TEST RANGE (AFETR)

Note: This is SATELLITE DEBRIS
Your satellite tracking list
Your tracking list is empty




NASA's NSSDC Master Catalog

Two Line Element Set (TLE):
1 46665U 18079CT  24197.15461737 -.00000074  00000-0  00000+0 0  9990
2 46665  11.7267 112.4178 4647877 152.1594 243.1497  1.71462297 23595
Source of the keplerian elements: AFSPC